Weather History for Skagway, AK

Change the Weather History Date:

Tuesday, May 7, 2013

  Actual Average Record
Temperature  
Mean Temperature 46 °F -  
Max Temperature 54 °F 52 °F 72 °F (1984)
Min Temperature 37 °F 37 °F 29 °F (1984)
Degree Days  
Heating Degree Days 20    
Moisture  
Dew Point 34 °F    
Average Humidity 67    
Maximum Humidity 83    
Minimum Humidity 46    
Precipitation  
Precipitation 0.00 in - - ()
Sea Level Pressure  
Sea Level Pressure 30.20 in    
Wind  
Wind Speed 4 mph (SW)    
Max Wind Speed 14 mph    
Max Gust Speed -    
Visibility 10 miles    
Events      
Averages and records for this station are not official NWS values.
T = Trace of Precipitation, MM = Missing Value Source: NWS Daily Summary

Daily Weather History Graph

Daily Weather History Graph

Search for Another Location

Airport:

Trip Planner

Search our weather history database for the weather conditions in past years. The results will help you decide how hot, cold, wet, or windy it might be!

Date:

Astronomy

May. 07, 2013 Rise Set
Actual Time 4:45 AM AKDT 9:11 PM AKDT
Civil Twilight 3:49 AM AKDT 10:08 PM AKDT
Nautical Twilight 2:15 AM AKDT 11:46 PM AKDT
Astronomical Twilight Sun does not rise Sun does not rise
Moon 3:57 AM AKDT (5/7) 6:54 PM AKDT (5/7)
Length of Visible Light 18h 18m
Length of Day
16h 26m
Waning Crescent, 5% of the Moon is Illuminated
May 7
Waning Crescent
May 9
New
May 17
First Quarter
May 24
Full
May 31
Last Quarter

Hourly Weather History & Observations

Time (AKDT) Temp. Windchill Dew Point Humidity Pressure Visibility Wind Dir Wind Speed Gust Speed Precip Events Conditions
12:53 AM 43.0 °F 38.2 °F 34.0 °F 71% 30.23 in 10.0 mi WSW 8.1 mph - N/A   Overcast
1:53 AM 42.1 °F - 34.0 °F 73% 30.24 in 10.0 mi Calm Calm - N/A   Overcast
2:53 AM 41.0 °F - 34.0 °F 76% 30.24 in 10.0 mi Calm Calm - N/A   Overcast
3:53 AM 39.9 °F - 33.1 °F 77% 30.25 in 10.0 mi Calm Calm - N/A   Overcast
4:53 AM 39.0 °F - 33.1 °F 79% 30.25 in 10.0 mi Calm Calm - N/A   Overcast
5:53 AM 37.9 °F - 33.1 °F 83% 30.25 in 10.0 mi Calm Calm - N/A   Overcast
6:53 AM 39.0 °F - 33.1 °F 79% 30.25 in 10.0 mi Calm Calm - N/A   Mostly Cloudy
7:53 AM 39.9 °F - 35.1 °F 83% 30.24 in 10.0 mi Calm Calm - N/A   Partly Cloudy
8:53 AM 43.0 °F - 36.0 °F 76% 30.24 in 10.0 mi Calm Calm - N/A   Clear
9:53 AM 44.1 °F 42.5 °F 35.1 °F 71% 30.22 in 10.0 mi SW 3.5 mph - N/A   Clear
10:53 AM 43.0 °F 41.3 °F 36.0 °F 76% 30.22 in 10.0 mi SW 3.5 mph - N/A   Clear
11:53 AM 46.0 °F 41.4 °F 37.9 °F 73% 30.20 in 10.0 mi SSW 9.2 mph - N/A   Clear
12:53 PM 46.9 °F - 37.0 °F 68% 30.20 in 10.0 mi SSW 12.7 mph - N/A   Clear
1:53 PM 50.0 °F - 35.1 °F 57% 30.17 in 10.0 mi SSW 13.8 mph - N/A   Clear
2:53 PM 53.1 °F - 34.0 °F 48% 30.16 in 10.0 mi SSW 13.8 mph - N/A   Clear
3:53 PM 53.1 °F - 37.9 °F 57% 30.15 in 10.0 mi SSW 12.7 mph - N/A   Clear
4:53 PM 54.0 °F - 37.0 °F 53% 30.14 in 10.0 mi SSW 12.7 mph - N/A   Clear
5:53 PM 53.1 °F - 37.0 °F 55% 30.14 in 10.0 mi SW 9.2 mph - N/A   Clear
6:53 PM 50.0 °F - 36.0 °F 59% 30.13 in 10.0 mi SW 5.8 mph - N/A   Clear
7:53 PM 51.1 °F - 30.9 °F 46% 30.13 in 10.0 mi Calm Calm - N/A   Clear
8:53 PM 48.0 °F - 32.0 °F 54% 30.15 in 10.0 mi Calm Calm - N/A   Clear
9:53 PM 45.0 °F - 32.0 °F 60% 30.16 in 10.0 mi Calm Calm - N/A   Clear
10:53 PM 42.1 °F - 30.9 °F 65% 30.17 in 10.0 mi Calm Calm - N/A   Clear
11:53 PM 39.9 °F - 30.9 °F 70% 30.17 in 10.0 mi Calm Calm - N/A   Clear